TimeMDT,TemperatureF,Dew PointF,Humidity,Sea Level PressureIn,VisibilityMPH,Wind Direction,Wind SpeedMPH,Gust SpeedMPH,PrecipitationIn,Events,Conditions,WindDirDegrees,DateUTC
12:53 AM,54.0,35.1,49,30.18,10.0,NW,4.6,-,N/A,,Clear,320,2013-05-12 06:53:00
1:53 AM,52.0,35.1,53,30.17,10.0,West,3.5,-,N/A,,Clear,280,2013-05-12 07:53:00
2:53 AM,52.0,35.1,53,30.16,10.0,WNW,8.1,-,N/A,,Clear,300,2013-05-12 08:53:00
3:53 AM,51.1,35.1,54,30.16,10.0,WNW,6.9,-,N/A,,Clear,290,2013-05-12 09:53:00
4:53 AM,50.0,35.1,57,30.15,10.0,NW,6.9,-,N/A,,Clear,310,2013-05-12 10:53:00
5:53 AM,48.9,35.1,59,30.18,10.0,NW,6.9,-,N/A,,Clear,310,2013-05-12 11:53:00
6:53 AM,54.0,37.0,53,30.19,10.0,NW,3.5,-,N/A,,Clear,320,2013-05-12 12:53:00
7:53 AM,61.0,39.9,46,30.20,10.0,North,6.9,-,N/A,,Clear,350,2013-05-12 13:53:00
8:53 AM,64.0,39.9,41,30.21,10.0,NNE,4.6,-,N/A,,Clear,20,2013-05-12 14:53:00
9:53 AM,69.1,39.0,33,30.19,10.0,Calm,Calm,-,N/A,,Clear,0,2013-05-12 15:53:00
10:53 AM,72.0,37.0,28,30.17,10.0,Variable,3.5,-,N/A,,Clear,0,2013-05-12 16:53:00
11:53 AM,75.0,35.1,23,30.16,10.0,SE,3.5,-,N/A,,Clear,130,2013-05-12 17:53:00
12:53 PM,77.0,34.0,21,30.14,10.0,SSE,12.7,18.4,N/A,,Partly Cloudy,150,2013-05-12 18:53:00
1:53 PM,77.0,34.0,21,30.12,10.0,South,8.1,-,N/A,,Partly Cloudy,170,2013-05-12 19:53:00
2:53 PM,80.1,33.1,18,30.09,10.0,SSE,11.5,18.4,N/A,,Scattered Clouds,150,2013-05-12 20:53:00
3:53 PM,79.0,30.9,17,30.06,10.0,SSW,6.9,-,N/A,,Clear,210,2013-05-12 21:53:00
4:53 PM,79.0,30.9,17,30.04,10.0,SE,8.1,16.1,N/A,,Partly Cloudy,140,2013-05-12 22:53:00
5:53 PM,79.0,30.0,17,30.03,10.0,SSE,12.7,-,N/A,,Clear,150,2013-05-12 23:53:00
6:53 PM,77.0,30.9,19,30.02,10.0,SE,10.4,-,N/A,,Clear,130,2013-05-13 00:53:00
7:53 PM,73.0,30.9,21,30.04,10.0,SSE,6.9,-,N/A,,Clear,150,2013-05-13 01:53:00
8:53 PM,66.9,28.9,24,30.06,10.0,South,8.1,-,N/A,,Clear,170,2013-05-13 02:53:00
9:53 PM,63.0,28.9,28,30.08,10.0,South,9.2,-,N/A,,Clear,180,2013-05-13 03:53:00
10:53 PM,64.0,30.0,28,30.09,10.0,South,9.2,-,N/A,,Clear,190,2013-05-13 04:53:00
11:53 PM,62.1,30.0,30,30.10,10.0,South,10.4,-,N/A,,Clear,190,2013-05-13 05:53:00